Retour au catalogue

SL-16 DEB

ActifLEO
NORAD 22368·DEBRIS·🇷🇺 Russia

Lancé Dec 25, 1992 depuis Baikonur Cosmodrome

Loading…

Prochains Passages (prochaines 24 heures)

TLE

FraisSource: Space-Track

Époque: Sep 14, 2026, 09:47 UTC

1 22368U 92093BH  26257.40804308  .00000378  00000-0  10234-3 0  9994
2 22368  71.2435  44.9512 0110243 110.2547 281.9710 14.50621863755057

Suivez SL-16 DEB en temps réel avec AllMySat

Download on the App Store